When you browse on this site, cookies collect data to enhance your experience and personalize the content and advertising you see.
Visit our Privacy Policy to learn more. By continuing to use the site, you agree to this use of cookies and data.
  • In Österreich
  • Länderverzeichnis
  • Für 7 Tage
  • Wassertemperatur
  • Wetterkarte
  • News
  • Widgets
  • user-avatar
    Anmelden

    Stündliche Wetter Da Nang

    Heute, 20 Januar, Montag

    Zeit Temperatur Niederschläge Wind Luftdruck Luftfeuchtigkeit
    00:00 +21°C° 0 mm 1 m/S 762 mmHg 94%
    01:00 +20°C° 0 mm 1 m/S 762 mmHg 94%
    02:00 +20°C° 0 mm 1 m/S 761 mmHg 94%
    03:00 +20°C° 0 mm 1 m/S 761 mmHg 94%
    04:00 +20°C° 0 mm 1 m/S 761 mmHg 94%
    05:00 +20°C° 0 mm 1 m/S 761 mmHg 93%
    06:00 +20°C° 0 mm 1 m/S 762 mmHg 93%
    07:00 +21°C° 0 mm 1 m/S 762 mmHg 93%
    08:00 +23°C° 0.1 mm 1 m/S 763 mmHg 86%
    09:00 +24°C° 0.1 mm 1 m/S 763 mmHg 79%
    10:00 +26°C° 0.1 mm 1 m/S 763 mmHg 72%
    11:00 +26°C° 0 mm 1 m/S 762 mmHg 70%
    12:00 +27°C° 0 mm 1 m/S 762 mmHg 67%
    13:00 +27°C° 0 mm 2 m/S 761 mmHg 64%
    14:00 +27°C° 0 mm 2 m/S 761 mmHg 68%
    15:00 +26°C° 0 mm 3 m/S 761 mmHg 73%
    16:00 +26°C° 0 mm 3 m/S 761 mmHg 77%
    17:00 +24°C° 0 mm 3 m/S 761 mmHg 82%
    18:00 +23°C° 0 mm 2 m/S 762 mmHg 87%
    19:00 +21°C° 0 mm 2 m/S 763 mmHg 92%
    20:00 +21°C° 0 mm 2 m/S 763 mmHg 92%
    21:00 +20°C° 0 mm 2 m/S 763 mmHg 93%
    22:00 +21°C° 0 mm 1 m/S 763 mmHg 94%
    23:00 +21°C° 0 mm 1 m/S 763 mmHg 95%

    Morgen, 21 Januar, Dienstag

    Zeit Temperatur Niederschläge Wind Luftdruck Luftfeuchtigkeit
    00:00 +20°C° 0 mm 2 m/S 763 mmHg 95%
    01:00 +20°C° 0 mm 2 m/S 763 mmHg 96%
    02:00 +19°C° 0 mm 2 m/S 762 mmHg 96%
    03:00 +19°C° 0 mm 2 m/S 762 mmHg 96%
    04:00 +19°C° 0 mm 2 m/S 762 mmHg 96%
    05:00 +19°C° 0 mm 2 m/S 762 mmHg 96%
    06:00 +20°C° 0 mm 2 m/S 762 mmHg 95%
    07:00 +20°C° 0 mm 2 m/S 762 mmHg 95%
    08:00 +23°C° 0 mm 1 m/S 763 mmHg 88%
    09:00 +24°C° 0 mm 1 m/S 763 mmHg 81%
    10:00 +26°C° 0 mm 1 m/S 763 mmHg 74%
    11:00 +27°C° 0 mm 2 m/S 763 mmHg 71%
    12:00 +27°C° 0 mm 2 m/S 762 mmHg 68%
    13:00 +28°C° 0 mm 2 m/S 761 mmHg 65%
    14:00 +28°C° 0 mm 3 m/S 761 mmHg 68%
    15:00 +27°C° 0 mm 3 m/S 760 mmHg 71%
    16:00 +27°C° 0 mm 3 m/S 760 mmHg 75%
    17:00 +26°C° 0 mm 3 m/S 760 mmHg 80%
    18:00 +24°C° 0 mm 3 m/S 761 mmHg 86%
    19:00 +23°C° 0 mm 2 m/S 762 mmHg 91%
    20:00 +23°C° 0 mm 2 m/S 762 mmHg 92%
    21:00 +23°C° 0 mm 2 m/S 762 mmHg 92%
    22:00 +23°C° 0 mm 1 m/S 763 mmHg 92%
    23:00 +22°C° 0 mm 1 m/S 762 mmHg 93%

    übermorgen, 22 Januar, Mittwoch

    Zeit Temperatur Niederschläge Wind Luftdruck Luftfeuchtigkeit
    00:00 +22°C° 0 mm 1 m/S 762 mmHg 94%
    01:00 +22°C° 0 mm 1 m/S 762 mmHg 94%
    02:00 +21°C° 0 mm 1 m/S 761 mmHg 94%
    03:00 +21°C° 0 mm 1 m/S 761 mmHg 94%
    04:00 +21°C° 0 mm 1 m/S 760 mmHg 95%
    05:00 +20°C° 0 mm 2 m/S 761 mmHg 94%
    06:00 +20°C° 0 mm 2 m/S 761 mmHg 94%
    07:00 +20°C° 0 mm 2 m/S 761 mmHg 94%
    08:00 +24°C° 0 mm 2 m/S 761 mmHg 83%
    09:00 +26°C° 0 mm 2 m/S 762 mmHg 72%
    10:00 +29°C° 0 mm 2 m/S 762 mmHg 61%
    11:00 +29°C° 0 mm 2 m/S 761 mmHg 59%
    12:00 +30°C° 0 mm 2 m/S 760 mmHg 57%
    13:00 +31°C° 0 mm 3 m/S 759 mmHg 56%
    14:00 +30°C° 0 mm 3 m/S 759 mmHg 63%
    15:00 +29°C° 0 mm 3 m/S 758 mmHg 71%
    16:00 +27°C° 0 mm 3 m/S 758 mmHg 78%
    17:00 +26°C° 0 mm 3 m/S 758 mmHg 84%
    18:00 +25°C° 0 mm 2 m/S 759 mmHg 90%
    19:00 +23°C° 0 mm 2 m/S 760 mmHg 95%
    20:00 +23°C° 0 mm 1 m/S 760 mmHg 96%
    21:00 +22°C° 0 mm 1 m/S 760 mmHg 96%
    22:00 +22°C° 0 mm 1 m/S 760 mmHg 96%
    23:00 +22°C° 0 mm 1 m/S 760 mmHg 96%

    23 Januar, Donnerstag

    Zeit Temperatur Niederschläge Wind Luftdruck Luftfeuchtigkeit
    00:00 +21°C° 0 mm 2 m/S 760 mmHg 96%
    01:00 +21°C° 0 mm 2 m/S 759 mmHg 96%
    02:00 +21°C° 0 mm 2 m/S 759 mmHg 96%
    03:00 +21°C° 0 mm 2 m/S 759 mmHg 96%
    04:00 +21°C° 0 mm 2 m/S 758 mmHg 96%
    05:00 +21°C° 0 mm 2 m/S 759 mmHg 96%
    06:00 +21°C° 0 mm 2 m/S 759 mmHg 95%
    07:00 +21°C° 0 mm 2 m/S 760 mmHg 95%
    08:00 +25°C° 0 mm 2 m/S 760 mmHg 85%
    09:00 +27°C° 0 mm 2 m/S 760 mmHg 74%
    10:00 +29°C° 0 mm 2 m/S 760 mmHg 64%
    11:00 +30°C° 0 mm 2 m/S 759 mmHg 62%
    12:00 +31°C° 0 mm 3 m/S 759 mmHg 60%
    13:00 +31°C° 0 mm 3 m/S 758 mmHg 57%
    14:00 +30°C° 0 mm 4 m/S 757 mmHg 64%
    15:00 +29°C° 0 mm 4 m/S 757 mmHg 71%
    16:00 +28°C° 0 mm 4 m/S 757 mmHg 78%
    17:00 +27°C° 0 mm 3 m/S 757 mmHg 84%
    18:00 +25°C° 0 mm 3 m/S 757 mmHg 90%
    19:00 +24°C° 0 mm 2 m/S 758 mmHg 97%
    20:00 +24°C° 0 mm 2 m/S 758 mmHg 97%
    21:00 +23°C° 0 mm 2 m/S 759 mmHg 97%
    22:00 +23°C° 0 mm 2 m/S 759 mmHg 97%
    23:00 +23°C° 0 mm 2 m/S 759 mmHg 97%

    24 Januar, Freitag

    Zeit Temperatur Niederschläge Wind Luftdruck Luftfeuchtigkeit
    00:00 +21°C° 0 mm 2 m/S 759 mmHg 97%
    01:00 +21°C° 0 mm 2 m/S 759 mmHg 97%
    02:00 +21°C° 0 mm 2 m/S 758 mmHg 97%
    03:00 +21°C° 0 mm 2 m/S 758 mmHg 97%
    04:00 +21°C° 0 mm 2 m/S 758 mmHg 96%
    05:00 +23°C° 0 mm 2 m/S 758 mmHg 96%
    06:00 +23°C° 0 mm 2 m/S 759 mmHg 95%
    07:00 +23°C° 0 mm 2 m/S 759 mmHg 95%
    08:00 +25°C° 0 mm 2 m/S 759 mmHg 85%
    09:00 +27°C° 0 mm 2 m/S 759 mmHg 75%
    10:00 +29°C° 0 mm 2 m/S 759 mmHg 65%
    11:00 +30°C° 0 mm 3 m/S 759 mmHg 62%
    12:00 +31°C° 0 mm 3 m/S 758 mmHg 59%
    13:00 +33°C° 0 mm 4 m/S 757 mmHg 55%
    14:00 +32°C° 0 mm 4 m/S 756 mmHg 62%
    15:00 +30°C° 0 mm 4 m/S 756 mmHg 70%
    16:00 +29°C° 0 mm 4 m/S 756 mmHg 77%
    17:00 +27°C° 0 mm 4 m/S 756 mmHg 83%
    18:00 +26°C° 0 mm 3 m/S 756 mmHg 88%
    19:00 +25°C° 0 mm 3 m/S 757 mmHg 94%
    20:00 +24°C° 0 mm 3 m/S 757 mmHg 94%
    21:00 +24°C° 0 mm 3 m/S 757 mmHg 95%
    22:00 +24°C° 0 mm 3 m/S 758 mmHg 95%
    23:00 +24°C° 0 mm 2 m/S 757 mmHg 95%

    25 Januar, Samstag

    Zeit Temperatur Niederschläge Wind Luftdruck Luftfeuchtigkeit
    00:00 +24°C° 0 mm 2 m/S 757 mmHg 96%
    01:00 +23°C° 0 mm 2 m/S 757 mmHg 96%
    02:00 +23°C° 0 mm 2 m/S 757 mmHg 96%
    03:00 +23°C° 0 mm 2 m/S 756 mmHg 96%
    04:00 +23°C° 0 mm 2 m/S 756 mmHg 96%
    05:00 +23°C° 0 mm 2 m/S 756 mmHg 96%
    06:00 +23°C° 0 mm 2 m/S 757 mmHg 95%
    07:00 +24°C° 0 mm 2 m/S 757 mmHg 95%
    08:00 +25°C° 0 mm 2 m/S 757 mmHg 87%
    09:00 +27°C° 0 mm 2 m/S 757 mmHg 79%
    10:00 +29°C° 0 mm 3 m/S 757 mmHg 71%
    11:00 +30°C° 0 mm 3 m/S 757 mmHg 66%
    12:00 +33°C° 0 mm 3 m/S 756 mmHg 61%
    13:00 +34°C° 0 mm 3 m/S 755 mmHg 56%
    14:00 +33°C° 0.2 mm 3 m/S 755 mmHg 64%
    15:00 +30°C° 0.2 mm 3 m/S 755 mmHg 73%
    16:00 +29°C° 0.2 mm 3 m/S 754 mmHg 81%
    17:00 +28°C° 0.1 mm 3 m/S 755 mmHg 86%
    18:00 +26°C° 0.1 mm 2 m/S 755 mmHg 91%
    19:00 +24°C° 0.1 mm 2 m/S 756 mmHg 97%
    20:00 +24°C° 0 mm 2 m/S 756 mmHg 97%
    21:00 +24°C° 0 mm 2 m/S 757 mmHg 97%
    22:00 +24°C° 0 mm 2 m/S 757 mmHg 97%
    23:00 +25°C° 0.1 mm 2 m/S 757 mmHg 97%
    Mehr zeigen